Temp
-3 -3 -3 -3 -3 -3 -4 -3 -3 -3 -4 -4 -4 -3 -3 -3 -2 -2 -2 -2 -2 -1 -1 -1 -0 0 0
-4 -4 -4 -4 -4 -4 -4 -4 -4 -4 -4 -4 -4 -4 -4 -4 -3 -3 -2 -2 -3 -3 -2 -1 -1 -1 -1
-5 -5 -5 -5 -5 -5 -5 -5 -5 -5 -5 -5 -4 -4 -4 -4 -5 -4 -3 -3 -3 -3 -3 -3 -2 -2 -2
-6 -7 -7 -7 -7 -7 -6 -6 -6 -6 -6 -6 -6 -6 -6 -5 -5 -5 -4 -4 -3 -4 -3 -4 -3 -3 -3
-8 -8 -8 -8 -8 -8 -8 -8 -7 -7 -7 -7 -7 -7 -7 -6 -6 -6 -5 -5 -4 -4 -5 -4 -4 -4 -4
-9 -10 -10 -10 -10 -10 -10 -9 -8 -9 -9 -7 -8 -7 -8 -8 -8 -7 -7 -6 -6 -5 -5 -5 -5 -5 -5
-12 -12 -12 -13 -13 -12 -12 -12 -11 -10 -11 -9 -10 -9 -9 -9 -9 -9 -8 -8 -7 -7 -6 -6 -6 -6 -6
-14 -14 -14 -14 -15 -15 -15 -15 -14 -13 -14 -12 -11 -11 -10 -10 -10 -10 -9 -9 -8 -8 -8 -8 -8 -7 -7
-15 -15 -15 -15 -15 -16 -16 -16 -16 -14 -14 -15 -13 -14 -13 -11 -11 -11 -11 -10 -9 -9 -9 -9 -9 -8 -8
-16 -16 -16 -16 -16 -16 -16 -16 -16 -15 -15 -15 -15 -15 -14 -13 -12 -12 -13 -12 -10 -9 -9 -9 -10 -9 -9
-17 -17 -17 -17 -16 -16 -16 -17 -16 -16 -16 -16 -15 -16 -16 -15 -14 -14 -14 -13 -12 -11 -11 -10 -10 -11 -10
-18 -17 -17 -17 -17 -17 -17 -17 -17 -17 -16 -17 -17 -17 -17 -16 -15 -15 -14 -14 -13 -12 -12 -11 -12 -12 -12
-18 -18 -18 -18 -18 -18 -17 -17 -17 -17 -17 -17 -17 -17 -17 -17 -16 -15 -15 -14 -14 -13 -13 -13 -13 -12 -13
-18 -18 -18 -18 -18 -18 -18 -18 -17 -17 -17 -18 -18 -18 -17 -17 -16 -15 -15 -15 -14 -14 -14 -14 -14 -13 -13
-18 -18 -18 -18 -18 -18 -18 -18 -18 -17 -17 -17 -18 -17 -17 -17 -16 -16 -15 -15 -15 -15 -15 -15 -15 -14 -14
-19 -19 -19 -19 -19 -19 -19 -19 -18 -18 -17 -17 -17 -17 -17 -17 -17 -16 -16 -15 -15 -15 -16 -16 -16 -15 -15
-19 -19 -19 -19 -19 -19 -19 -19 -19 -18 -18 -18 -18 -18 -18 -17 -17 -17 -16 -16 -16 -16 -16 -16 -15 -16 -16
Height
3050 3051 3049 3046 3044 3040 3038 3036 3035 3033 3031 3031 3031 3030 3029 3028 3026 3025 3024 3023 3023 3023 3022 3021 3022 3023 3023
3033 3035 3034 3035 3031 3029 3029 3026 3023 3023 3020 3020 3020 3020 3020 3019 3018 3017 3016 3015 3014 3014 3015 3015 3014 3015 3015
3017 3016 3016 3017 3017 3015 3014 3014 3012 3010 3009 3009 3008 3008 3007 3008 3008 3008 3007 3006 3006 3006 3006 3007 3008 3007 3008
3007 3003 2999 2998 2996 2995 2996 2997 2995 2997 2995 2994 2995 2994 2994 2995 2996 2997 2997 2996 2995 2996 2996 2997 2998 3000 3000
2996 2991 2986 2983 2979 2978 2976 2975 2980 2979 2980 2981 2979 2979 2980 2981 2981 2982 2983 2984 2984 2985 2986 2987 2988 2990 2992
2981 2976 2973 2970 2967 2963 2960 2961 2959 2962 2959 2962 2963 2963 2965 2966 2966 2965 2967 2970 2971 2972 2973 2975 2978 2979 2981
2964 2963 2959 2958 2955 2952 2949 2945 2944 2944 2939 2941 2946 2946 2948 2950 2950 2951 2952 2954 2957 2959 2961 2962 2966 2968 2971
2955 2951 2948 2946 2942 2940 2937 2933 2931 2933 2929 2923 2929 2929 2931 2933 2935 2935 2937 2940 2943 2946 2948 2950 2953 2956 2960
2944 2942 2939 2937 2934 2928 2926 2923 2920 2922 2921 2915 2917 2912 2914 2916 2918 2921 2922 2925 2928 2931 2934 2938 2941 2944 2948
2934 2931 2929 2927 2925 2922 2917 2913 2911 2908 2912 2907 2907 2903 2898 2902 2905 2906 2908 2910 2913 2916 2920 2923 2928 2932 2936
2922 2921 2920 2917 2915 2912 2909 2906 2903 2900 2902 2897 2895 2894 2891 2888 2891 2894 2895 2898 2901 2904 2906 2908 2912 2919 2924
2913 2911 2909 2907 2905 2902 2900 2897 2895 2892 2893 2891 2886 2886 2883 2881 2880 2883 2884 2886 2888 2893 2895 2898 2900 2904 2911
2904 2902 2899 2896 2893 2891 2889 2887 2886 2885 2884 2882 2879 2877 2875 2873 2872 2873 2875 2877 2880 2882 2885 2889 2892 2895 2899
2895 2892 2890 2887 2885 2882 2879 2877 2876 2877 2876 2875 2872 2870 2868 2866 2864 2865 2868 2869 2870 2873 2878 2881 2883 2886 2890
2888 2885 2882 2879 2877 2875 2872 2870 2868 2867 2868 2867 2865 2863 2862 2860 2859 2857 2860 2862 2864 2866 2870 2873 2876 2879 2882
2881 2878 2875 2872 2869 2867 2865 2863 2860 2859 2858 2857 2857 2856 2856 2856 2854 2854 2855 2856 2859 2862 2864 2866 2869 2872 2875
2875 2872 2869 2866 2863 2860 2858 2856 2854 2852 2851 2850 2850 2850 2849 2850 2850 2850 2850 2851 2854 2857 2859 2861 2863 2866 2868
Wind_Speed
44 42 43 44 43 44 44 45 44 43 42 40 38 35 33 33 33 32 31 29 29 28 28 27 27 27 26
53 51 50 48 49 50 48 49 50 49 50 48 45 43 40 37 36 36 35 34 31 30 30 30 29 29 29
60 59 59 56 55 55 55 54 54 53 53 52 52 51 48 44 40 38 38 38 36 34 31 31 31 29 29
60 61 62 60 59 59 58 55 56 54 55 53 52 52 51 50 46 41 40 41 41 38 36 33 32 32 30
59 60 61 61 61 60 60 59 55 55 54 53 54 53 53 52 50 47 43 42 43 42 38 36 34 33 32
57 58 57 57 57 57 57 55 56 52 52 54 53 53 52 48 48 49 49 46 45 44 42 38 36 34 33
53 52 51 49 50 50 50 51 51 51 51 52 49 52 52 52 48 47 48 47 45 45 43 39 36 35 34
47 48 47 46 43 40 40 40 44 44 44 50 47 46 47 50 51 52 49 47 47 44 43 40 37 35 34
41 42 42 42 41 41 41 43 45 44 39 42 42 44 43 43 44 45 49 52 47 45 43 39 38 36 35
38 38 39 39 39 38 39 41 42 45 41 41 39 39 43 38 38 39 38 45 48 49 47 43 39 39 37
37 36 36 37 37 38 39 39 40 41 39 38 42 39 37 38 34 32 33 35 39 41 47 48 45 41 38
37 37 37 37 37 37 37 38 37 37 35 34 36 35 34 34 33 28 29 32 33 37 37 43 37 41 40
38 37 36 35 34 33 33 34 33 31 30 30 32 33 32 32 32 29 30 25 26 30 30 29 31 41 40
36 36 35 33 32 32 32 32 31 27 26 27 31 30 29 31 27 28 29 27 28 27 23 22 31 34 41
30 31 31 31 32 30 31 31 31 30 26 25 26 30 27 29 21 20 25 26 28 27 26 26 28 32 35
29 28 28 28 29 29 27 27 28 28 28 26 26 26 26 21 21 12 11 17 16 19 19 19 23 30 36
28 27 27 27 28 28 26 25 24 24 24 24 23 21 19 18 18 18 20 18 18 22 23 25 22 23 25
Wind_Direction
284 280 280 280 280 280 281 281 280 280 279 278 278 280 283 285 287 288 287 283 279 275 273 269 265 259 256
287 285 282 280 279 278 277 276 276 276 276 278 278 278 278 279 279 281 281 281 278 273 269 267 265 265 262
289 289 288 285 281 280 279 277 277 275 275 276 277 277 277 275 274 274 275 277 276 273 268 265 263 260 260
286 287 287 287 286 284 280 279 276 274 273 273 272 272 273 275 274 271 269 270 269 268 267 263 260 259 255
285 285 286 287 287 286 284 282 279 277 274 272 269 269 270 270 269 268 264 262 264 266 264 263 260 256 255
286 286 286 287 287 287 287 285 281 275 271 268 267 266 265 265 264 262 260 257 256 258 260 258 256 255 254
288 287 286 286 286 286 285 285 284 282 282 274 269 262 259 255 255 257 257 254 252 252 253 253 251 250 249
283 284 285 287 288 289 289 287 283 282 284 283 278 272 264 260 254 249 251 253 249 246 248 248 248 246 244
283 283 282 283 284 284 283 284 286 287 285 287 288 286 276 263 257 255 252 247 246 246 241 243 243 242 240
281 279 279 279 280 282 285 285 287 288 290 291 291 291 288 276 265 258 254 251 249 244 245 237 239 239 238
287 285 283 282 281 282 284 286 286 286 291 292 291 291 288 289 279 263 260 255 250 249 246 236 236 233 236
289 291 291 288 286 283 282 281 283 286 286 286 288 291 290 286 282 268 255 253 251 246 250 249 232 232 234
293 294 292 292 290 288 284 284 283 281 282 282 281 287 284 284 279 262 256 249 256 258 248 253 259 243 230
294 293 292 292 291 291 289 286 284 281 279 281 279 284 285 286 277 261 264 264 259 254 249 255 254 250 242
298 297 295 293 291 291 290 288 287 285 283 276 276 276 283 278 281 281 256 255 241 257 260 256 258 253 237
302 300 298 297 295 295 294 290 289 288 284 280 272 274 273 282 286 268 259 240 234 243 241 247 256 255 250
305 303 299 297 297 297 297 296 293 291 288 282 270 266 274 273 277 275 253 240 238 262 253 250 248 249 251